This demonstration page uses our WeatherBlox Daily Observations layout. Learn more.

Left ArrowRight Arrow

Hourly Observations for May 31, 2019

Temp ( °F °C ) Dew Point ( °F °C ) Humidity (%) Winds ( mph kmh ) Pressure ( in mb ) Visibility ( mi km ) Precip ( " mm )
12:15 am 00:15 Cloudy 59 15 59 15 100 100 SE 5 7 29.86 1011 10 16.0934 N/A
12:35 am 00:35 Cloudy 61 16 61 16 100 100 SSW 9 15 29.85 1011 7 11.26538 N/A
12:55 am 00:55 Cloudy 59 15 59 15 100 100 S 7 11 29.84 1011 10 16.0934 N/A
1:15 am 01:15 Cloudy 61 16 61 16 100 100 S 7 11 29.83 1010 10 16.0934 N/A
1:35 am 01:35 Cloudy 61 16 61 16 100 100 S 6 9 29.83 1010 10 16.0934 N/A
1:55 am 01:55 Mostly Cloudy 61 16 61 16 100 100 S 5 7 29.83 1010 10 16.0934 N/A
2:15 am 02:15 Mostly Cloudy 59 15 59 15 100 100 SW 3 6 29.83 1010 10 16.0934 N/A
2:35 am 02:35 Mostly Cloudy 59 15 59 15 100 100 NNW 3 6 29.83 1010 10 16.0934 N/A
2:55 am 02:55 Partly Cloudy 59 15 59 15 100 100 N N/A 29.84 1011 10 16.0934 N/A
3:15 am 03:15 Partly Cloudy 59 15 59 15 100 100 SSW 5 7 29.83 1010 10 16.0934 N/A
3:35 am 03:35 Partly Cloudy 59 15 59 15 100 100 N N/A 29.84 1011 10 16.0934 N/A
3:55 am 03:55 Mostly Cloudy 59 15 59 15 100 100 N N/A 29.84 1011 10 16.0934 N/A
4:15 am 04:15 Cloudy 59 15 59 15 100 100 N N/A 29.85 1011 10 16.0934 N/A
4:35 am 04:35 Mostly Cloudy 59 15 59 15 100 100 N N/A 29.85 1011 10 16.0934 N/A
4:55 am 04:55 Mostly Cloudy 59 15 59 15 100 100 N N/A 29.84 1011 10 16.0934 N/A
5:15 am 05:15 Partly Cloudy 59 15 59 15 100 100 SSE 3 6 29.85 1011 10 16.0934 N/A
5:35 am 05:35 Clear 57 14 57 14 100 100 E 3 6 29.85 1011 7 11.26538 N/A
5:55 am 05:55 Clear 59 15 59 15 100 100 S 5 7 29.84 1011 7 11.26538 N/A
6:15 am 06:15 Clear 59 15 59 15 100 100 N N/A 29.85 1011 7 11.26538 N/A
6:35 am 06:35 Partly Cloudy 57 14 57 14 100 100 N N/A 29.87 1011 2.5 4.02335 N/A
6:55 am 06:55 Partly Cloudy 57 14 57 14 100 100 N 6 9 29.88 1012 2 3.21868 N/A
7:15 am 07:15 Sunny 59 15 59 15 100 100 N N/A 29.87 1012 3 4.82802 N/A
7:35 am 07:35 Partly Cloudy 59 15 59 15 100 100 N N/A 29.88 1012 1.75 2.816345 N/A
7:55 am 07:55 Cloudy 61 16 61 16 100 100 N N/A 29.88 1012 0.25 0.402335 N/A
8:15 am 08:15 Cloudy 59 15 59 15 100 100 N N/A 29.88 1012 0.25 0.402335 N/A
8:35 am 08:35 Cloudy 61 16 61 16 100 100 N N/A 29.89 1012 0.5 0.80467 N/A
8:55 am 08:55 Cloudy 61 16 61 16 100 100 N N/A 29.88 1012 0.5 0.80467 N/A
9:15 am 09:15 Partly Cloudy 64 18 64 18 100 100 N N/A 29.87 1012 4 6.43736 N/A
9:35 am 09:35 Sunny 66 19 66 19 100 100 SW 5 7 29.87 1012 10 16.0934 N/A
9:55 am 09:55 Sunny 66 19 66 19 100 100 N N/A 29.88 1012 10 16.0934 N/A
10:15 am 10:15 Partly Cloudy 68 20 66 19 94 94 N 7 11 29.89 1012 10 16.0934 N/A
10:43 am 10:43 Mostly Cloudy 68 20 66 19 94 94 N 8 13 29.9 1012 10 16.0934 N/A
11:03 am 11:03 Partly Cloudy 70 21 66 19 88 88 NNW 3 6 29.9 1012 10 16.0934 N/A
11:22 am 11:22 Partly Cloudy 70 21 68 20 94 94 N 7 11 29.9 1012 10 16.0934 N/A
11:43 am 11:43 Partly Cloudy 72 22 66 19 83 83 N 5 7 29.9 1013 10 16.0934 N/A
12:02 pm 12:02 Partly Cloudy 72 22 66 19 83 83 NW 3 6 29.9 1013 10 16.0934 N/A
12:23 pm 12:23 Mostly Cloudy 72 22 66 19 83 83 NNW 6 9 29.9 1013 10 16.0934 N/A
12:43 pm 12:43 Sunny 72 22 66 19 83 83 N N/A 29.9 1013 10 16.0934 N/A
1:04 pm 13:04 Sunny 72 22 66 19 83 83 WSW 3 6 29.9 1013 10 16.0934 N/A
1:23 pm 13:23 Sunny 73 23 66 19 78 78 WNW 3 6 29.9 1012 10 16.0934 N/A
1:42 pm 13:42 Partly Cloudy 75 24 66 19 74 74 SW 3 6 29.89 1012 10 16.0934 N/A
2:03 pm 14:03 Partly Cloudy 73 23 66 19 78 78 WNW 3 6 29.88 1012 10 16.0934 N/A
2:22 pm 14:22 Sunny 75 24 66 19 74 74 NW 3 6 29.88 1012 10 16.0934 N/A
2:42 pm 14:42 Sunny 75 24 64 18 69 69 WNW 6 9 29.87 1011 10 16.0934 N/A
3:02 pm 15:02 Partly Cloudy 75 24 64 18 69 69 NNW 8 13 29.87 1011 10 16.0934 N/A
3:25 pm 15:25 Partly Cloudy 77 25 64 18 65 65 NW 8 13 29.86 1011 10 16.0934 N/A
3:42 pm 15:42 Partly Cloudy 77 25 64 18 65 65 N N/A 29.86 1011 10 16.0934 N/A
4:02 pm 16:02 Sunny 77 25 63 17 61 61 N N/A 29.86 1011 10 16.0934 N/A
4:22 pm 16:22 Sunny 77 25 64 18 65 65 NNW 6 9 29.86 1011 10 16.0934 N/A
4:44 pm 16:44 Sunny 77 25 64 18 65 65 NNW 3 6 29.85 1011 10 16.0934 N/A
5:03 pm 17:03 Partly Cloudy 79 26 64 18 61 61 W 3 6 29.85 1011 10 16.0934 N/A
5:22 pm 17:22 Partly Cloudy 77 25 64 18 65 65 NNW 6 9 29.85 1011 10 16.0934 N/A
5:42 pm 17:42 Sunny 77 25 64 18 65 65 NNW 7 11 29.85 1011 10 16.0934 N/A
6:02 pm 18:02 Sunny 77 25 64 18 65 65 NNW 5 7 29.85 1011 10 16.0934 N/A
6:23 pm 18:23 Sunny 77 25 64 18 65 65 N 8 13 29.86 1011 10 16.0934 N/A
6:43 pm 18:43 Partly Cloudy 77 25 66 19 69 69 N 6 9 29.85 1011 10 16.0934 N/A
7:02 pm 19:02 Partly Cloudy 75 24 64 18 69 69 NW 7 11 29.86 1011 10 16.0934 N/A
7:24 pm 19:24 Sunny 75 24 64 18 69 69 NW 5 7 29.86 1011 10 16.0934 N/A
7:44 pm 19:44 Sunny 75 24 64 18 69 69 NNW 6 9 29.86 1011 10 16.0934 N/A
8:02 pm 20:02 Sunny 73 23 64 18 74 74 WNW 3 6 29.86 1011 10 16.0934 N/A
8:22 pm 20:22 Sunny 73 23 64 18 74 74 N N/A 29.86 1011 10 16.0934 N/A
8:44 pm 20:44 Sunny 73 23 63 17 69 69 N N/A 29.87 1011 10 16.0934 N/A
9:02 pm 21:02 Sunny 70 21 68 20 94 94 N N/A 29.88 1012 10 16.0934 N/A
9:24 pm 21:24 Clear 68 20 66 19 94 94 N N/A 29.88 1012 10 16.0934 N/A
9:42 pm 21:42 Clear 68 20 66 19 94 94 N N/A 29.88 1012 10 16.0934 N/A
10:03 pm 22:03 Clear 66 19 66 19 100 100 N N/A 29.88 1012 10 16.0934 N/A
10:22 pm 22:22 Clear 66 19 64 18 94 94 W 5 7 29.89 1012 10 16.0934 N/A
10:42 pm 22:42 Clear 64 18 64 18 100 100 WSW 3 6 29.89 1012 10 16.0934 N/A
11:02 pm 23:02 Clear 66 19 66 19 100 100 N N/A 29.9 1013 10 16.0934 N/A
11:22 pm 23:22 Clear 64 18 64 18 100 100 WSW 5 7 29.9 1013 10 16.0934 N/A
11:43 pm 23:43 Clear 64 18 63 17 94 94 W 5 7 29.9 1013 10 16.0934 N/A

Powered by AerisWeather